sat.trackr.live / text

‹ back to catalog

STARLINK-3198

NORAD 49763 · 2021-115AR

PAYLOAD ACTIVE UNKNOWN

§ Identity

Operator
Country
US
Launch date
2021-12-02
Launch site
AFETR
Launch vehicle
Mass (kg)
RCS (m²)

Purposes: comms

External: N2YO · Heavens-Above · Gunter

§ Orbital elements

Epoch: 2026-09-20T05:12:10.854720Z

Period
94.01 min
Inclination
53.1634°
Eccentricity
0.0001065
Mean motion
15.31704576 rev/d
Perigee alt
470.0 km
Apogee alt
471.5 km
Semi-major
6,848.9 km
B*
5.6498e-5
RAAN
335.0909°
Arg perigee
75.5766°
Mean anomaly
284.5353°
Rev number
26,519

§ Raw data

STARLINK-31981 49763U 21115AR  26263.21679230  .00001389  00000+0  56498-4 0  99942 49763  53.1634 335.0909 0001065  75.5766 284.5353 15.31704576265192

JSON: /api/v1/satellites/49763 · /tle

For live sub-satellite position, see the globe view (requires WebGL).

§ Visibility from observer

Set your observer location to see the next 7 days of passes ≥ 10°. The values pass through the URL so the page stays shareable.

No JS? Fill the form by hand. The geolocation button needs JavaScript.